Theta_e
323 323 322 322 322 322 322 323 324 324 325 324 324 322 321 319 318 317 316 316 317 315
323 323 322 322 323 323 323 324 324 324 324 325 324 323 322 320 318 317 316 316 316 316
323 324 324 324 323 323 324 325 324 324 324 324 324 324 323 322 321 318 317 317 316 316
315 317 321 324 325 324 325 325 324 324 325 324 323 323 322 322 321 319 318 317 315 314
300 304 309 315 318 320 323 326 325 325 324 324 324 323 321 321 320 318 316 313 312 311
298 298 300 302 307 312 314 317 319 321 322 323 323 322 321 321 320 315 316 313 310 310
297 298 299 299 301 303 305 306 310 311 316 317 318 317 317 316 315 313 313 311 308 307
297 297 296 296 298 301 302 301 302 303 306 307 307 305 304 304 308 307 306 302 303 304
294 293 293 293 294 295 295 295 296 296 297 299 298 298 299 301 303 300 298 298 298 297
290 290 290 290 290 290 292 292 292 292 292 293 295 295 296 295 296 295 296 294 290 287
289 288 288 288 289 290 291 290 291 291 291 290 291 294 295 293 292 290 290 289 288 288
287 283 288 288 290 290 289 288 287 287 288 287 288 292 294 290 288 287 286 286 287 288
286 284 286 288 287 286 285 285 285 286 286 286 287 291 292 289 286 285 284 285 285 286
281 281 286 286 284 285 285 284 285 284 284 285 286 287 292 290 286 285 284 284 283 284
Wind_Speed
16 11 11 13 11 10 11 11 12 13 15 16 14 14 12 10 11 12 11 14 13 9
13 14 13 15 11 11 12 12 12 13 15 16 16 15 14 11 13 12 13 14 14 12
9 11 13 12 14 16 14 12 11 13 14 14 15 16 16 14 14 14 12 12 14 14
8 7 7 11 12 12 12 13 13 13 15 15 16 16 16 16 16 17 16 14 14 16
6 6 7 7 7 7 10 11 12 13 14 15 16 16 17 18 16 16 17 14 14 15
7 6 7 7 7 6 6 8 9 12 14 15 15 16 16 17 16 16 18 16 17 16
6 6 6 6 6 6 6 6 6 7 10 10 9 11 12 12 12 13 14 14 15 14
5 5 5 5 5 6 8 6 5 6 6 6 5 4 6 6 9 10 10 8 11 13
4 4 4 4 4 5 5 5 5 6 6 6 4 6 11 9 9 9 9 11 10 5
3 4 4 4 4 4 5 4 5 6 6 7 6 6 8 10 5 7 8 7 6 4
1 3 3 3 4 5 3 4 5 5 5 6 6 8 9 8 4 2 1 3 5 7
1 1 2 3 5 5 4 4 3 3 5 5 6 8 8 5 4 4 3 2 3 5
2 4 3 4 4 2 1 2 2 3 3 5 6 6 6 6 4 5 4 4 4 7
1 2 2 1 1 1 1 0 2 3 3 3 4 4 6 6 1 3 5 6 5 4
Wind_Direction
217 218 218 218 221 223 222 224 222 214 218 221 220 219 215 216 218 216 217 216 214 208
218 219 222 225 221 225 225 226 219 213 213 218 218 219 217 219 219 214 213 215 213 213
219 222 227 227 223 224 230 225 218 215 217 220 221 222 220 223 225 218 220 218 214 214
231 231 229 233 237 233 232 227 222 219 220 220 220 218 220 225 227 225 226 223 216 217
251 249 248 246 246 241 236 234 229 221 227 228 225 220 220 223 219 221 226 221 222 221
261 257 255 258 263 263 260 246 235 231 234 233 229 226 224 226 223 213 225 217 216 219
255 254 260 268 266 263 274 281 272 253 249 234 222 226 227 226 224 222 225 217 221 209
253 254 266 273 283 283 280 286 301 302 282 259 233 213 220 222 224 222 220 209 208 214
262 267 264 278 296 295 292 305 312 301 284 284 265 240 209 201 215 216 215 215 218 250
285 291 295 301 314 302 296 311 305 306 304 291 282 289 268 245 248 224 223 208 175 132
258 279 295 296 301 298 303 298 296 288 287 293 296 287 254 222 223 223 184 158 151 157
212 240 276 287 299 295 313 304 303 319 312 283 283 281 251 148 115 102 94 110 160 168
237 178 196 252 259 239 197 266 300 305 319 304 295 268 200 163 134 131 115 98 93 109
10 176 194 212 181 233 212 274 334 340 352 334 316 309 213 194 96 145 144 136 125 118